Location: Aufkirchen
(47.9603°N, 11.3653°E)
Time: 00:15:02
(UTC+01:00)

Transit 2A Rocket - Pass Details

Date: 06 December 2020
Orbit: 592 x 911 km, 66.7° (Epoch: 20 January)

Event Time Altitude Azimuth Distance (km) Brightness Sun altitude
Rises 06:27:42 0° 326° (NW) 3,235 - -13.0°
Exits shadow 06:29:45 - 338° (NNW) 2,631 7.4 -12.7°
Reaches altitude 10° 06:31:29 10° 352° (N) 2,226 7.1 -12.4°
Maximum altitude 06:33:57 14° 22° (NNE) 1,942 7.1 -12.0°
Drops below altitude 10° 06:36:20 10° 52° (NE) 2,123 7.7 -11.7°
Sets 06:39:46 0° 79° (E) 2,967 9.1 -11.1°
